Terminal Aerodrome Forecast
Issued by NWS

Home | Current Version | Previous Version | Graphics & Text | Print | Product List | Glossary On
Versions: 1 2 3 4 5 6 7 8 9 10 11 12 13 14 15 16 17 18 19 20
427
FTUS43 KBIS 192331
TAFJMS
TAF
KJMS 192331Z 2000/2024 17009KT 5SM SHRA VCTS SCT030 OVC090CB
      TEMPO 2000/2002 2SM TSRAGS BKN030CB
     FM200300 29015G24KT P6SM VCSH BKN100
     FM200700 27011KT P6SM BKN100
     FM201700 24015KT P6SM FEW250=

USA.gov is the U.S. government's official web portal to all federal, state and local government web resources and services.